User: anonymous   Login
Location: Unspecified
(0.0000°N, 0.0000°E)
Time: 15:05:23
(UTC+00:00)
Language:

NUSAT 2 - Orbit

View from above orbital plane
View from above orbital plane
View from above satellite
View from above satellite

Ground track
Ground track

The orbit data is extracted from the following two-line orbital elements,

1 41558U 16033C   19078.58643319 +.00001471 +00000-0 +55095-4 0  9991
2 41558 097.4217 167.3854 0011385 260.1817 099.8137 15.28853091156216
Epoch (UTC): 19 March 2019 14:04:27
Eccentricity: 0.0011385
inclination: 97.4217°
perigee height: 471 km
apogee height: 487 km
right ascension of ascending node: 167.3854°
argument of perigee: 260.1817°
revolutions per day: 15.28853091
mean anomaly at epoch: 99.8137°
orbit number at epoch: 15621

The dashed part of the orbit path shows where the satellite is in the earth's shadow,  

DLR